Tracking 29088 objects as of 14-Jul-2024
HD Live streaming from Space Station
objects crossing your sky now

COSMOS 1275 DEB

Track COSMOS 1275 DEB now!
10-day predictions


NORAD ID: 13471
Int'l Code: 1981-053FT
Perigee: 867.0 km
Apogee: 942.7 km
Inclination: 82.8 °
Period: 102.9 minutes
Semi major axis: 7275 km
RCS: 0.0585 m2 (small)
Launch date: June 4, 1981
Source: Commonwealth of Independent States (former USSR) (CIS)
Launch site: PLESETSK MISSILE AND SPACE COMPLEX (PKMTR)

Note: This is SATELLITE DEBRIS
Your satellite tracking list
Your tracking list is empty




NASA's NSSDC Master Catalog

Two Line Element Set (TLE):
1 13471U 81053FT  24195.96948778  .00003122  00000-0  21312-2 0  9991
2 13471  82.8093  22.1173 0052065 195.1182 318.8970 13.98870525129049
Source of the keplerian elements: AFSPC